Location: Bord�res
(43.2000°N, 0.2167°W)
Time: 11:10:52
(UTC+00:00)

Okean 1-7 - Pass Details

Date: 03 March 2021
Orbit: 589 x 619 km, 82.5° (Epoch: 21 April)

Event Time Altitude Azimuth Distance (km) Brightness Sun altitude
Rises 19:35:21 0° 350° (N) 2,894 6.8 -19.5°
Reaches altitude 10° 19:37:35 10° 350° (N) 1,981 5.9 -19.9°
Maximum altitude 19:41:58 81° 264° (W) 623 3.0 -20.6°
Enters shadow 19:45:37 14° 177° (S) 1,679 5.1 -21.3°
